[[{"header":{"parameterUnit":"m.s-1","parameterCategory":1,"la1":30.2991,"la2":30.254,"lo1":-89.0895,"lo2":-89.0444,"dy":0.0017,"dx":0.0017,"nx":28,"ny":28,"refTime":"2025-07-27T03:00:00:Z","depth":0,"parameterNumber":2,"parameterNumberName":"U-component_of_WINDS"},"data":[0,0,0,0,0,0,0,0,0,0,0,0,0,0,0,0,0,0,0,0,0,0,0,0,0,0,0,0,0,0,0,0,0,0,0,0,0,0,0,0,0,0,0,0,0,0,0,0,0,0,0,0,0,0,0,0,0,0,-0.7076,-0.7075,0,-0.6946,-0.6945,-0.6943,-0.6872,-0.6871,-0.6871,-0.6871,-0.6739,-0.6736,-0.6733,0,0,0,0,0,0,0,0,0,0,0,0,0,-0.7266,-0.7262,-0.7076,-0.7075,-0.7073,-0.6947,-0.6945,-0.6943,-0.6872,-0.6871,-0.6871,-0.6871,-0.674,-0.6736,-0.6732,0,0,0,0,0,0,0,0,0,0,0,0,0,-0.7164,-0.7261,-0.7077,-0.7022,-0.7016,-0.6947,-0.6945,-0.6942,-0.6872,-0.6871,-0.6871,-0.6871,-0.6742,-0.6737,-0.6732,-0.6707,0,0,-0.6717,-0.6715,0,0,0,0,0,0,0,0,-0.717,-0.7157,-0.7032,-0.7026,-0.7019,-0.6925,-0.6963,-0.6864,-0.6872,-0.6927,-0.6871,-0.6871,-0.6801,-0.6791,-0.6768,-0.6701,-0.6696,-0.6716,-0.6713,-0.6711,-0.671,0,0,0,0,0,0,0,-0.7177,-0.7163,-0.7025,-0.703,-0.7022,-0.7005,-0.699,-0.6944,-0.6867,-0.6922,-0.6916,-0.6902,-0.6798,-0.6773,-0.6764,-0.6694,-0.6716,-0.6712,-0.6709,-0.6707,-0.6602,-0.6602,0,0,0,0,0,0,-0.7193,-0.7169,-0.7029,-0.7021,-0.7095,-0.7002,-0.6986,-0.6955,-0.6868,-0.6854,-0.6902,-0.6899,-0.6781,-0.677,-0.6759,-0.6725,-0.6711,-0.6706,-0.6704,-0.6602,-0.6602,-0.6602,0,0,0,0,0,0,-0.7197,-0.7181,-0.7034,-0.7093,-0.7073,-0.6999,-0.6966,-0.6953,-0.6928,-0.6853,-0.6839,-0.689,-0.6781,-0.6766,-0.6721,-0.672,-0.6704,-0.67,-0.6602,-0.6602,-0.6602,-0.6657,0,0,0,0,0,0,-0.7203,-0.7183,-0.7172,-0.7094,-0.7071,-0.6997,-0.6966,-0.6951,-0.6919,-0.6914,-0.6838,-0.6825,-0.6779,-0.6729,-0.6716,-0.6712,-0.6696,-0.6601,-0.6602,-0.6602,-0.6655,-0.6659,-0.6663,0,0,0,0,0,-0.721,-0.7193,-0.7172,-0.7155,-0.7055,-0.6997,-0.6984,-0.6931,-0.6919,-0.6908,-0.6861,-0.6828,-0.6722,-0.6725,-0.671,-0.6705,-0.6601,-0.6602,-0.6602,-0.6653,-0.6658,-0.6662,0,0,0,0,0,0,-0.7273,-0.7181,-0.7157,-0.7114,-0.7064,-0.6985,-0.697,-0.6938,-0.6891,-0.6888,-0.6825,-0.6808,-0.6769,-0.6733,-0.6737,-0.6677,-0.6658,-0.6656,-0.6702,-0.6706,-0.671,-0.672,-0.6692,0,0,0,0,0,-0.7281,-0.7241,-0.7164,-0.7133,-0.711,-0.7045,-0.7017,-0.6981,-0.6927,-0.6905,-0.6854,-0.6804,-0.6759,-0.6731,-0.6686,-0.665,-0.6633,-0.6639,-0.6643,-0.6647,-0.6645,-0.6624,-0.6626,-0.6604,-0.6604,-0.6604,0,0,-0.7299,-0.7244,-0.7223,-0.7145,-0.7102,-0.7063,-0.7027,-0.6987,-0.6957,-0.6899,-0.6853,-0.6815,-0.6754,-0.6714,-0.6693,-0.6682,-0.6648,-0.6647,-0.6651,-0.6647,-0.6625,-0.6627,-0.6629,-0.6604,-0.6604,-0.6604,0,0,-0.7311,-0.7266,-0.7235,-0.7193,-0.7129,-0.7086,-0.7079,-0.7006,-0.6977,-0.693,-0.6886,-0.6851,-0.6776,-0.6735,-0.6704,-0.6703,-0.6672,-0.6691,-0.671,-0.6691,-0.6693,-0.6694,-0.6694,-0.6695,-0.6689,-0.669,-0.669,0,-0.7341,-0.728,-0.7224,-0.7186,-0.7154,-0.71,-0.707,-0.7032,-0.6957,-0.6936,-0.6924,-0.6829,-0.6785,-0.6734,-0.6735,-0.6711,-0.6702,-0.6698,-0.6697,-0.6698,-0.6698,-0.6697,-0.6698,-0.6692,-0.6692,-0.6692,-0.6691,0,-0.732,-0.7279,-0.7262,-0.7191,-0.7156,-0.7123,-0.7063,-0.7036,-0.7003,-0.6962,-0.6916,-0.6861,-0.6804,-0.679,-0.6757,-0.6735,-0.673,-0.6709,-0.6688,-0.6704,-0.6702,-0.6702,-0.6696,-0.6695,-0.6694,-0.6694,0,0,-0.7367,-0.7266,-0.7261,-0.7228,-0.7154,-0.7121,-0.7086,-0.703,-0.7008,-0.6959,-0.6928,-0.6867,-0.6847,-0.6812,-0.6775,-0.6758,-0.6762,-0.6739,-0.6736,-0.6745,-0.6736,-0.6752,-0.6752,-0.6742,-0.6741,-0.6741,-0.6741,0,-0.7368,-0.7301,-0.7251,-0.7204,-0.7165,-0.7115,-0.7084,-0.7037,-0.6998,-0.696,-0.6918,-0.6875,-0.6852,-0.6831,-0.6812,-0.6766,-0.6759,-0.6765,-0.6713,-0.6712,-0.6729,-0.6751,-0.6768,-0.677,-0.674,-0.6739,-0.6739,0,-0.736,-0.7312,-0.7261,-0.7193,-0.7174,-0.7148,-0.7094,-0.7058,-0.7004,-0.6977,-0.6939,-0.6901,-0.6863,-0.6848,-0.6795,-0.68,-0.6776,-0.6751,-0.675,-0.6742,-0.6726,-0.6744,-0.6769,-0.677,-0.6738,-0.6738,-0.6738,0,-0.7399,-0.7322,-0.7282,-0.7256,-0.7174,-0.7157,-0.7123,-0.7068,-0.7038,-0.6991,-0.6972,-0.6921,-0.6894,-0.6856,-0.6807,-0.68,-0.6759,-0.6739,-0.6736,-0.6738,-0.6729,-0.673,-0.6751,-0.6715,-0.6715,-0.6715,-0.6715,0,-0.7405,-0.7376,-0.7298,-0.7274,-0.724,-0.7184,-0.7152,-0.7114,-0.7066,-0.7033,-0.6987,-0.6958,-0.6894,-0.6858,-0.6819,-0.6782,-0.677,-0.6748,-0.6737,-0.6751,-0.6754,-0.6734,-0.6732,-0.6715,-0.6715,-0.6715,-0.6715,0,-0.7443,-0.7389,-0.7342,-0.727,-0.7251,-0.7229,-0.7168,-0.7142,-0.7102,-0.7062,-0.7049,-0.6986,-0.6941,-0.6888,-0.6825,-0.6799,-0.6765,-0.6751,-0.6784,-0.6778,-0.6778,-0.6779,-0.6785,-0.6784,-0.675,-0.6751,-0.6751,0,-0.745,-0.7426,-0.7352,-0.7326,-0.7293,-0.7253,-0.7223,-0.7168,-0.7138,-0.7075,-0.7058,-0.7009,-0.6967,-0.6898,-0.6847,-0.68,-0.6783,-0.6789,-0.6775,-0.6791,-0.6783,-0.6785,-0.6783,-0.6792,-0.6793,-0.6793,-0.6794,0,-0.7469,-0.7444,-0.7401,-0.735,-0.7315,-0.7272,-0.7228,-0.721,-0.7146,-0.7116,-0.7069,-0.7036,-0.6973,-0.6926,-0.6872,-0.6838,-0.6806,-0.6799,-0.6795,-0.6809,-0.6829,-0.6818,-0.6793,-0.6798,-0.6798,-0.6798,-0.6797,-0.6797,-0.7491,-0.7468,-0.7412,-0.7367,-0.7328,-0.7287,-0.726,-0.7217,-0.7176,-0.712,-0.7091,-0.7045,-0.6992,-0.6917,-0.6884,-0.6848,-0.6837,-0.6832,-0.6831,-0.6831,-0.6835,-0.6836,-0.6838,-0.6838,-0.6838,-0.6838,-0.6838,0,-0.7507,-0.7469,-0.7428,-0.7367,-0.7332,-0.7305,-0.7255,-0.7227,-0.7187,-0.7141,-0.7101,-0.7048,-0.7003,-0.6949,-0.69,-0.6882,-0.6866,-0.6871,-0.6871,-0.6864,-0.6848,-0.6855,-0.6885,-0.6885,-0.6885,-0.6885,-0.6885,-0.6885,-0.7512,-0.7472,-0.7441,-0.7381,-0.7343,-0.7298,-0.7271,-0.7235,-0.7197,-0.714,-0.7102,-0.7067,-0.7018,-0.6966,-0.6924,-0.6909,-0.6893,-0.6903,-0.6884,-0.6869,-0.6865,-0.6861,-0.6868,-0.69,-0.69,-0.6903,-0.6903,-0.6903]},{"header":{"parameterUnit":"m.s-1","parameterCategory":1,"la1":30.2991,"la2":30.254,"lo1":-89.0895,"lo2":-89.0444,"dy":0.0017,"dx":0.0017,"nx":28,"ny":28,"refTime":"2025-07-27T03:00:00:Z","depth":0,"parameterNumber":3,"parameterNumberName":"V-component_of_WINDS"},"data":[0,0,0,0,0,0,0,0,0,0,0,0,0,0,0,0,0,0,0,0,0,0,0,0,0,0,0,0,0,0,0,0,0,0,0,0,0,0,0,0,0,0,0,0,0,0,0,0,0,0,0,0,0,0,0,0,0,0,4.3681,4.3681,0,4.3614,4.3613,4.3613,4.357,4.357,4.3569,4.3569,4.3497,4.3495,4.3493,0,0,0,0,0,0,0,0,0,0,0,0,0,4.377,4.3769,4.3681,4.3681,4.368,4.3614,4.3613,4.3612,4.357,4.357,4.3569,4.3569,4.3497,4.3495,4.3493,0,0,0,0,0,0,0,0,0,0,0,0,0,4.372,4.3768,4.3682,4.3651,4.3647,4.3614,4.3613,4.3612,4.357,4.357,4.3569,4.3569,4.3498,4.3495,4.3493,4.3484,0,0,4.3485,4.3484,0,0,0,0,0,0,0,0,4.3723,4.3717,4.3656,4.3653,4.3649,4.36,4.3618,4.3569,4.357,4.3599,4.3569,4.3569,4.3531,4.3526,4.3514,4.3481,4.3478,4.3485,4.3483,4.3482,4.3481,0,0,0,0,0,0,0,4.3727,4.3719,4.3655,4.3655,4.3651,4.3639,4.3632,4.3609,4.3568,4.3597,4.3593,4.3586,4.3529,4.3516,4.3512,4.3477,4.3485,4.3483,4.3481,4.348,4.3434,4.3434,0,0,0,0,0,0,4.3735,4.3723,4.3657,4.3653,4.3686,4.3638,4.363,4.3616,4.3568,4.356,4.3587,4.3584,4.3521,4.3515,4.3509,4.3496,4.3482,4.348,4.3478,4.3434,4.3434,4.3434,0,0,0,0,0,0,4.3737,4.373,4.3659,4.3687,4.3677,4.3637,4.3622,4.3615,4.3602,4.3561,4.3553,4.3581,4.352,4.3513,4.3491,4.3493,4.3479,4.3476,4.3433,4.3434,4.3434,4.347,0,0,0,0,0,0,4.374,4.3731,4.3728,4.3687,4.3676,4.3644,4.3622,4.3614,4.3598,4.3595,4.3554,4.3546,4.352,4.3495,4.3489,4.3489,4.3474,4.3433,4.3433,4.3434,4.3468,4.3472,4.3474,0,0,0,0,0,4.3743,4.374,4.3728,4.372,4.3671,4.3644,4.3637,4.3607,4.3599,4.3595,4.3568,4.3548,4.3494,4.3493,4.3486,4.3485,4.3433,4.3433,4.3434,4.3467,4.3471,4.3474,0,0,0,0,0,0,4.378,4.3734,4.372,4.3703,4.3678,4.3637,4.3631,4.3612,4.3588,4.3586,4.3549,4.354,4.3522,4.3502,4.3502,4.3475,4.3461,4.346,4.3489,4.3492,4.3495,4.35,4.3472,0,0,0,0,0,4.3786,4.3769,4.3729,4.3718,4.3706,4.3671,4.3658,4.3637,4.3609,4.3598,4.357,4.3542,4.3519,4.3505,4.3481,4.3466,4.3456,4.3462,4.3465,4.3467,4.3467,4.3457,4.346,4.3437,4.3437,4.3437,0,0,4.3798,4.3771,4.3762,4.3725,4.3703,4.3685,4.3662,4.3644,4.363,4.3595,4.3573,4.3551,4.3518,4.35,4.349,4.3482,4.3471,4.3468,4.3471,4.3468,4.3458,4.3461,4.3463,4.3437,4.3437,4.3437,0,0,4.3812,4.379,4.3778,4.3757,4.3725,4.3702,4.3699,4.3661,4.3646,4.3624,4.3597,4.358,4.3541,4.3519,4.3502,4.3509,4.3489,4.3502,4.3517,4.3508,4.351,4.3512,4.3514,4.3515,4.3502,4.3502,4.3502,0,4.3831,4.3804,4.3774,4.3758,4.3742,4.3711,4.3699,4.368,4.3641,4.363,4.3622,4.3574,4.3549,4.3525,4.3527,4.3515,4.351,4.3506,4.3513,4.3514,4.3514,4.3516,4.3517,4.3504,4.3504,4.3503,4.3503,0,4.3828,4.381,4.3805,4.377,4.3753,4.3739,4.3707,4.3694,4.3675,4.3653,4.3631,4.3601,4.3571,4.3564,4.3545,4.3538,4.3534,4.352,4.3505,4.3519,4.352,4.352,4.3506,4.3506,4.3505,4.3505,0,0,4.3861,4.3812,4.381,4.3794,4.3757,4.3742,4.3726,4.3699,4.3688,4.3662,4.3648,4.3617,4.3604,4.3586,4.3564,4.3556,4.3564,4.3543,4.3542,4.3548,4.3554,4.3564,4.3566,4.3551,4.3551,4.3551,4.3556,0,4.3868,4.384,4.3814,4.3795,4.3778,4.3749,4.3735,4.3711,4.369,4.3671,4.3647,4.3626,4.3611,4.3599,4.3591,4.3565,4.3564,4.3564,4.3536,4.3536,4.3545,4.3566,4.3577,4.3584,4.3557,4.3557,4.3557,0,4.3873,4.3851,4.383,4.3796,4.3788,4.3776,4.3749,4.3732,4.3703,4.3689,4.3669,4.3647,4.3629,4.3617,4.3591,4.3591,4.3579,4.3564,4.3564,4.3559,4.3547,4.3562,4.3585,4.3586,4.3557,4.3557,4.3557,0,4.3899,4.3864,4.3847,4.3834,4.3794,4.3786,4.3769,4.374,4.3725,4.3701,4.3691,4.3665,4.3651,4.3631,4.3602,4.3596,4.3579,4.3565,4.3566,4.3567,4.3563,4.3563,4.3584,4.3556,4.3556,4.3556,4.3556,0,4.3909,4.3898,4.3858,4.3848,4.3834,4.3804,4.3791,4.3771,4.3746,4.3731,4.3704,4.369,4.3654,4.3635,4.3612,4.3595,4.3588,4.3575,4.3569,4.3577,4.3579,4.3568,4.3566,4.3556,4.3556,4.3556,4.3556,0,4.3935,4.3908,4.3889,4.3852,4.3843,4.3835,4.3803,4.3792,4.377,4.3751,4.3745,4.371,4.3687,4.3657,4.3624,4.3609,4.3594,4.3585,4.3604,4.36,4.3603,4.3603,4.3616,4.3617,4.3589,4.359,4.359,0,4.3944,4.3935,4.3898,4.3887,4.3871,4.3853,4.3838,4.3808,4.3794,4.3762,4.3754,4.373,4.3708,4.3673,4.3644,4.3619,4.3609,4.3615,4.3605,4.3613,4.3608,4.3609,4.3608,4.3618,4.3618,4.3618,4.3619,0,4.3961,4.3949,4.393,4.3906,4.389,4.3869,4.3847,4.3839,4.3805,4.379,4.3767,4.3751,4.3718,4.3694,4.3666,4.3646,4.3627,4.3623,4.3621,4.3629,4.3641,4.3634,4.3611,4.3622,4.3622,4.3621,4.3621,4.3621,4.3978,4.3969,4.3943,4.3922,4.3903,4.3884,4.3872,4.3849,4.383,4.3802,4.3785,4.3763,4.3735,4.3695,4.3677,4.3659,4.3651,4.3649,4.3649,4.3649,4.3652,4.3645,4.3653,4.3653,4.3653,4.3653,4.3653,0,4.3994,4.3976,4.3958,4.3929,4.3913,4.3898,4.3873,4.3861,4.3842,4.3818,4.3798,4.3772,4.3749,4.3719,4.3694,4.3685,4.3675,4.3679,4.3679,4.3675,4.366,4.3663,4.3687,4.3687,4.3687,4.3687,4.3687,4.3687,4.4001,4.3985,4.3969,4.3944,4.3925,4.3904,4.3892,4.3873,4.3855,4.3827,4.3808,4.379,4.3763,4.3736,4.3714,4.3706,4.3697,4.3704,4.3693,4.3679,4.3676,4.3673,4.3676,4.3703,4.3703,4.371,4.371,4.371]}]]